AirNav   Air Wisconsin pilot careers
 
 418 users online  

KDRP Delta Regional Airport
Colt, Arkansas, USA

GOING TO COLT?


FAA INFORMATION EFFECTIVE 19 JULY 2018

Location

FAA Identifier: DRP
Lat/Long: 35-07-12.2000N / 090-49-35.4000W
35-07.203333N / 090-49.590000W
35.1200556 / -90.8265000
(estimated)
Elevation: 239 ft. / 72.8 m (surveyed)
Variation: 01W (2015)
From city: 1 mile SW of COLT, AR
Time zone: UTC -5 (UTC -6 during Standard Time)
Zip code: 72326

Airport Operations

Airport use: Open to the public
Activation date: 04/2014
Control tower: no
ARTCC: MEMPHIS CENTER
FSS: JONESBORO FLIGHT SERVICE STATION
NOTAMs facility: JBR (NOTAM-D service available)
Attendance: UNATNDD
Wind indicator: lighted
Segmented circle: yes
Lights: ACTVT HIRL RY 18/36; REIL RYS 18 & 36 - CTAF. PAPI RYS 18 & 36 OPERS CONTINUOUSLY.
Beacon: white-green (lighted land airport)
Operates sunset to sunrise.

Airport Communications

CTAF/UNICOM: 123.0
  • APCH/DEP SVC PRVDD BY MEMPHIS ARTCC ON FREQS 135.3/335.8 (BRINKLEY RCAG).

Nearby radio navigation aids

VOR radial/distance  VOR name  Freq  Var
GQEr227/21.8GILMORE VOR/DME113.0004E
UJMr346/33.5MARVELL VOR/DME109.6001E

Airport Services

Fuel available: 100LL
FUEL AVBL SELF SERVE AFT HRS WITH CREDIT CARD
Parking: tiedowns

Runway Information

Runway 18/36

Dimensions: 5003 x 75 ft. / 1525 x 23 m
Surface: asphalt, in good condition
Weight bearing capacity: 
Single wheel: 30.0
Runway edge lights: high intensity
RUNWAY 18  RUNWAY 36
Latitude: 35-07.615722N35-06.791037N
Longitude: 090-49.584015W090-49.595965W
Elevation: 239.0 ft.229.0 ft.
Traffic pattern: leftleft
Runway heading: 182 magnetic, 181 true002 magnetic, 001 true
Markings: precision, in good conditionprecision, in good condition
Visual slope indicator: 2-light PAPI on left (3.00 degrees glide path)2-light PAPI on left (3.00 degrees glide path)
Runway end identifier lights: yesyes
Touchdown point: yes, no lightsyes, no lights

Airport Ownership and Management from official FAA records

Ownership: Publicly-owned
Owner: DELTA REGIONAL AIRPORT AUTHORITY
21 CR 703
WYNNE, AR 72396
Phone 870-208-6607
Manager: JOHN KERR
21 CR 703
WYNNE, AR 72396
Phone 870-208-6607

Airport Operational Statistics

Aircraft based on the field: 7
Single engine airplanes: 6
Multi engine airplanes: 1
    
Aircraft operations: avg 40/week *
86% local general aviation
14% transient general aviation
* for 12-month period ending 30 April 2017

Instrument Procedures

NOTE: All procedures below are presented as PDF files. If you need a reader for these files, you should download the free Adobe Reader.

NOT FOR NAVIGATION. Please procure official charts for flight.
FAA instrument procedures published for use from 21 June 2018 at 0901Z to 19 July 2018 at 0900Z.

 
IAPs - Instrument Approach Procedures
RNAV (GPS) RWY 18   download (166KB)
RNAV (GPS) RWY 36   download (163KB)
NOTE: Special Take-Off Minimums/Departure Procedures apply   download

Other nearby airports with instrument procedures:

6M7 - Marianna/Lee County Airport-Steve Edwards Field (20 nm S)
M36 - Frank Federer Memorial Airport (22 nm SW)
M60 - Woodruff County Airport (24 nm NW)
KAWM - West Memphis Municipal Airport (29 nm E)
KHEE - Thompson-Robbins Airport (33 nm S)
 
Loc | Ops | Rwys | IFR | FBO | Links
Com | Nav | Svcs | Stats | Notes


 
Aerial photo
No photo
 
Airport distance calculator
Flying to Delta Regional Airport? Find the distance to fly.

From to KDRP

Sunrise and sunset
Times for 19-Jul-2018
 Local
(UTC-5)
 Zulu
(UTC)
Morning civil twilight05:3510:35
Sunrise06:0411:04
Sunset20:1501:15
Evening civil twilight20:4401:44

Current date and time
Zulu (UTC)  19-Jul-2018 06:51:35
Local (UTC-5)  19-Jul-2018 01:51:35
 
METAR
KAWM 
29nm E 
190553Z AUTO 00000KT 3SM BR SCT042 25/25 A2993 RMK AO2 SLP131 60000 T02500250 10261 20244 403330239 56002 $
KUTA 
35nm SE 
190635Z AUTO 00000KT 10SM 24/23 A2993 RMK AO2 TSNO
KM19 
35nm NW 
190642Z AUTO 04004KT 2 1/2SM BR FEW001 23/23 A2994 RMK AO2
KMEM 
42nm E 
190554Z 00000KT 10SM FEW030 BKN150 OVC250 24/23 A2994 RMK AO2 SLP135 T02440233 10256 20244 58001
KJBR 
44nm N 
190553Z AUTO 04003KT 6SM BR CLR 24/24 A2995 RMK AO2 SLP137 60001 T02390239 10250 20233 403220233 50001 $
KSRC 
45nm W 
190556Z AUTO 06003KT 10SM SCT055 24/24 A2995 RMK AO2 SLP145 6//// T02390239 10267 20239 51002
KSGT 
48nm SW 
190556Z AUTO 13003KT 9SM BKN043 26/24 A2994 RMK AO2 SLP135 T02560244 10278 20250 402890233 50001
KNQA 
49nm E 
190550Z 00000KT 10SM BKN250 23/23 A2995
TAF
KMEM 
42nm E 
190520Z 1906/2012 08004KT P6SM VCSH SCT040 BKN150 FM191100 15005KT P6SM FEW015 SCT040 BKN250 FM191700 19009KT P6SM VCSH SCT045 SCT250 FM192200 VRB10G15KT P6SM VCTS SCT045CB BKN150 FM200200 17005KT P6SM VCSH SCT050 BKN250
KJBR 
44nm N 
190520Z 1906/2006 VRB03KT P6SM SCT045 BKN150 FM191600 19009KT P6SM VCSH SCT045 SCT250 FM192100 VRB10G15KT P6SM VCTS SCT045CB BKN150 FM200100 VRB03KT P6SM FEW050 BKN250
NOTAMs
Click for the latest NOTAMs
NOTAMs are issued by the DoD/FAA and will open in a separate window not controlled by AirNav.

 

 
 

FBO, Fuel Providers, and Aircraft Ground Support

  
 Business Name 
 
 Contact 
 
 Services / Description 
 
Fuel Prices
 
Comments
  
Delta Regional Airport 870-208-6607
no information available

If you are affiliated with Delta Regional Airport and would like to show here your services, contact info, web link, logo, and more, click here
100LL
SS $4.40 
 Updated 24-May-2018
 
   1 read write
SS=Self service
Update Fuel Prices
 

Would you like to see your business listed on this page?

 If your business provides an interesting product or service to pilots, flight crews, aircraft, or users of the Delta Regional Airport, you should consider listing it here.  To start the listing process, click on the button below
 
Add a business
 

Other Pages about Delta Regional Airport

Update a link
 
Copyright © AirNav, LLC. All rights reserved. Privacy Policy  Contact